Regional Weather Roundup
Issued by NWS Green Bay, WI

Home | Current Version | Previous Version | Graphics & Text | Print | Product List | Glossary Off
Versions: 1 2 3 4 5 6 7 8 9 10 11 12 13 14 15 16 17 18 19 20 21 22 23 24 25 26 27 28 29 30 31 32 33 34 35 36 37 38 39 40 41 42 43 44 45 46 47 48 49 50

000
ASUS43 KGRB 040411
RWRGRB

NORTH-CENTRAL AND NORTHEAST WISCONSIN REGIONAL WEATHER ROUNDUP
NATIONAL WEATHER SERVICE GREEN BAY WI
1100 PM CDT MON AUG 03 2015

WIZ005-009-010>012-018-019-040500-
NORTH CENTRAL WISCONSIN

CITY           SKY/WX    TMP DP  RH WIND       PRES   REMARKS
IRONWOOD       CLOUDY    59  57  94 W6        29.85F
MANITOWISH WTR CLOUDY    57  57 100 NW7       29.89S
ARBOR VITAE    CLOUDY    59  57  93 CALM      29.89S
EAGLE RIVER    MOCLDY    55  55 100 CALM      29.88S
LAND O LAKES   LGT RAIN  58  56  94 NW8       29.89S
RHINELANDER    CLOUDY    60  55  83 N3        29.89S
PHILLIPS       CLOUDY    62  56  81 CALM      29.89S
ANTIGO         MOCLDY    54  52  92 W5        29.89R
TOMAHAWK       CLOUDY    60  54  80 CALM      29.89S
MERRILL        NOT AVBL
$$

WIZ013-073-040500-
NORTHEAST WISCONSIN

CITY           SKY/WX    TMP DP  RH WIND       PRES   REMARKS
IRON MOUNTAIN  LGT RAIN  59  57  93 W3        29.84S
MARINETTE      CLOUDY    63  52  67 CALM      29.84S
OCONTO         PTCLDY    56  56 100 CALM      29.85S
$$

WIZ017-030-035>037-045-040500-
CENTRAL WISCONSIN

CITY           SKY/WX    TMP DP  RH WIND       PRES   REMARKS
MEDFORD        CLOUDY    62  56  80 CALM      29.90S
WAUSAU         CLOUDY    65  55  70 NW3       29.88R
MOSINEE        CLOUDY    61  54  77 W6        29.90S
MARSHFIELD     MOCLDY    57  52  83 SW6       29.90S
WISC RAPIDS    LGT RAIN  56  51  84 W5        29.91S
STEVENS POINT  CLEAR     57  51  80 CALM      29.90S
WAUPACA        CLEAR     62  53  73 CALM      29.89S
SHAWANO        CLEAR     62  55  79 CALM      29.87S
CLINTONVILLE   CLEAR     59  54  82 SW3       29.87S
$$

WIZ038-039-048-051-040500-
FOX VALLEY

CITY           SKY/WX    TMP DP  RH WIND       PRES   REMARKS
NWS GREEN BAY  PTCLDY    65  56  72 W7        29.87R
APPLETON       PTCLDY    63  50  63 NW7       29.89S
OSHKOSH        CLEAR     64  53  67 W3        29.89R
FOND DU LAC    MOCLDY    65  55  70 W7        29.89S
$$

WIZ022-050-052-040500-
EAST CENTRAL WISCONSIN

CITY           SKY/WX    TMP DP  RH WIND       PRES   REMARKS
STURGEON BAY   PTCLDY    63  52  67 CALM      29.87S
MANITOWOC      CLOUDY    68  56  65 MISG      29.87S
SHEBOYGAN      CLEAR     64  55  72 W3        29.88R
$$

LMZ563-521-522-541>543-040500-
LAKESHORE

STATION/POSITION TIME  TEMP    WIND        PRES    VSBY  WAVE
                       AIR SEA DIR/SP/G                  HT/PER
                 (UTC) (F)     (DEG/KT/KT) (MB)    (MI)  (FT/S)
SHEBOYGAN LKSHOR 0400   69     270/  5/  7 1011.8R
KEWAUNEE LKSHORE 0300   66     300/  2/  3 1010.3R
ALGOMA MARINA    0312             CALM       N/A
NORTHPORT PIER   0300   69     310/ 10/ 14 1010.2R
N MID LAKE BUOY  0350   65 68  180/  2/  4 1009.8F         1
SISTER BAY LKSHO 0318   69     350/ 12/ 13   N/A
CHAMBERS ISLAND  0300   60     230/  2/  3 1010.5R
MENOMINEE LKSHOR 0300   67     270/  2/  4 1011.3R
$$


USA.gov is the U.S. government's official web portal to all federal, state and local government web resources and services.